,,PA_Meas_PMT16A,,PR_Meas_QMR101_102,,RH_Meas_QMH101,,SR_Meas_QMS101,,TA_Meas_QMH101,,GenWind,,GenWind,
time,status,PA,status,PR,status,RH,status,SR,status,TA,status,DirAvg,status,SpdAvg,
2012-05-29, 00:00:05,VALID,917.22,VALID,0,VALID,95.7654,VALID,0,VALID,21.1429,VALID,121,VALID,0,
2012-05-29, 00:01:05,VALID,917.193,VALID,0,VALID,95.8492,VALID,0.107441,VALID,21.1429,VALID,121,VALID,0,
2012-05-29, 00:02:05,VALID,917.191,VALID,0,VALID,95.9483,VALID,0,VALID,21.1624,VALID,121,VALID,0,
2012-05-29, 00:03:05,VALID,917.219,VALID,0,VALID,95.9864,VALID,0,VALID,21.1819,VALID,121,VALID,0,
2012-05-29, 00:04:05,VALID,917.217,VALID,0,VALID,96.0093,VALID,0,VALID,21.1819,VALID,121,VALID,0,
2012-05-29, 00:05:05,VALID,917.222,VALID,0,VALID,96.0703,VALID,0,VALID,21.221,VALID,121,VALID,0,
2012-05-29, 00:06:05,VALID,917.224,VALID,0,VALID,96.1008,VALID,0,VALID,21.2421,VALID,121,VALID,0,
2012-05-29, 00:07:05,VALID,917.235,VALID,0,VALID,96.1008,VALID,0,VALID,21.2193,VALID,121,VALID,0,
2012-05-29, 00:08:05,VALID,917.221,VALID,0,VALID,96.0932,VALID,0,VALID,21.26,VALID,121,VALID,0,
2012-05-29, 00:09:05,VALID,917.185,VALID,0,VALID,96.0627,VALID,0,VALID,21.26,VALID,121,VALID,0,
2012-05-29, 00:10:05,VALID,917.202,VALID,0,VALID,96.0245,VALID,0,VALID,21.2389,VALID,121,VALID,0,
2012-05-29, 00:11:05,VALID,917.187,VALID,0,VALID,96.0169,VALID,0,VALID,21.2795,VALID,120,VALID,0,
2012-05-29, 00:12:05,VALID,917.177,VALID,0,VALID,95.9559,VALID,0,VALID,21.299,VALID,121,VALID,0,
2012-05-29, 00:13:05,VALID,917.151,VALID,0,VALID,95.8721,VALID,0.107441,VALID,21.299,VALID,121,VALID,0,
2012-05-29, 00:14:05,VALID,917.155,VALID,0,VALID,95.8187,VALID,0,VALID,21.299,VALID,121,VALID,0,
2012-05-29, 00:15:05,VALID,917.152,VALID,0,VALID,95.7501,VALID,0.107441,VALID,21.299,VALID,121,VALID,0,
2012-05-29, 00:16:05,VALID,917.09,VALID,0,VALID,95.6891,VALID,0,VALID,21.299,VALID,121,VALID,0,
2012-05-29, 00:17:05,VALID,917.083,VALID,0,VALID,95.6205,VALID,0,VALID,21.299,VALID,121,VALID,0,
2012-05-29, 00:18:05,VALID,917.049,VALID,0,VALID,95.5519,VALID,0,VALID,21.299,VALID,121,VALID,0,
2012-05-29, 00:19:05,VALID,917.052,VALID,0,VALID,95.4985,VALID,0,VALID,21.299,VALID,121,VALID,0,
2012-05-29, 00:20:05,VALID,917.041,VALID,0,VALID,95.3689,VALID,0.107441,VALID,21.2795,VALID,121,VALID,0,
2012-05-29, 00:21:05,VALID,917.03,VALID,0,VALID,95.3384,VALID,0,VALID,21.3006,VALID,121,VALID,0,
2012-05-29, 00:22:05,VALID,917.044,VALID,0,VALID,95.2927,VALID,0,VALID,21.3185,VALID,121,VALID,0,
2012-05-29, 00:23:05,VALID,917.01,VALID,0,VALID,95.2393,VALID,0,VALID,21.3185,VALID,121,VALID,0,
2012-05-29, 00:24:05,VALID,917.034,VALID,0,VALID,95.1479,VALID,0,VALID,21.3185,VALID,121,VALID,0,
2012-05-29, 00:25:05,VALID,917.058,VALID,0,VALID,95.0716,VALID,0,VALID,21.3396,VALID,121,VALID,0,
2012-05-29, 00:26:05,VALID,917.047,VALID,0,VALID,95.0335,VALID,0,VALID,21.3396,VALID,121,VALID,0,
2012-05-29, 00:27:05,VALID,917.052,VALID,0,VALID,95.0106,VALID,0,VALID,21.338,VALID,121,VALID,0,
2012-05-29, 00:28:05,VALID,917.058,VALID,0,VALID,95.0106,VALID,0,VALID,21.3786,VALID,121,VALID,0,
2012-05-29, 00:29:05,VALID,917.06,VALID,0,VALID,94.942,VALID,0,VALID,21.3981,VALID,121,VALID,0,
2012-05-29, 00:30:05,VALID,917.065,VALID,0,VALID,94.8658,VALID,0,VALID,21.3786,VALID,121,VALID,0,
2012-05-29, 00:31:05,VALID,917.075,VALID,0,VALID,94.6981,VALID,0,VALID,21.3575,VALID,121,VALID,0,
2012-05-29, 00:32:05,VALID,917.042,VALID,0,VALID,94.599,VALID,0,VALID,21.3575,VALID,121,VALID,0,
2012-05-29, 00:33:05,VALID,917.018,VALID,0,VALID,94.599,VALID,0,VALID,21.338,VALID,121,VALID,0,
2012-05-29, 00:34:05,VALID,917.004,VALID,0,VALID,94.5075,VALID,0,VALID,21.2795,VALID,121,VALID,0,
2012-05-29, 00:35:05,VALID,916.98,VALID,0,VALID,94.5532,VALID,0,VALID,21.26,VALID,121,VALID,0,
2012-05-29, 00:36:05,VALID,916.963,VALID,0,VALID,94.6676,VALID,0,VALID,21.2405,VALID,121,VALID,0,
2012-05-29, 00:37:05,VALID,916.975,VALID,0,VALID,94.7133,VALID,0,VALID,21.221,VALID,121,VALID,0,
2012-05-29, 00:38:05,VALID,916.984,VALID,0,VALID,94.7286,VALID,0,VALID,21.2226,VALID,121,VALID,0,
2012-05-29, 00:39:05,VALID,917.013,VALID,0,VALID,94.7896,VALID,0,VALID,21.2226,VALID,121,VALID,0,
2012-05-29, 00:40:05,VALID,917.03,VALID,0,VALID,94.7819,VALID,0,VALID,21.2031,VALID,121,VALID,0,
2012-05-29, 00:41:05,VALID,917.031,VALID,0,VALID,94.8429,VALID,0,VALID,21.1819,VALID,120,VALID,0,
2012-05-29, 00:42:05,VALID,917.044,VALID,0,VALID,94.9573,VALID,0,VALID,21.2226,VALID,121,VALID,0,
2012-05-29, 00:43:05,VALID,917.086,VALID,0,VALID,94.942,VALID,0,VALID,21.221,VALID,120,VALID,0,
2012-05-29, 00:44:05,VALID,917.066,VALID,0,VALID,94.881,VALID,0,VALID,21.2421,VALID,121,VALID,0,
2012-05-29, 00:45:05,VALID,917.104,VALID,0,VALID,94.8963,VALID,0,VALID,21.2226,VALID,120,VALID,0,
2012-05-29, 00:46:05,VALID,917.078,VALID,0,VALID,94.8505,VALID,0,VALID,21.2226,VALID,121,VALID,0,
2012-05-29, 00:47:05,VALID,917.083,VALID,0,VALID,94.7438,VALID,0,VALID,21.2015,VALID,121,VALID,0,
2012-05-29, 00:48:05,VALID,917.117,VALID,0,VALID,94.7591,VALID,0,VALID,21.2015,VALID,120,VALID,0,
2012-05-29, 00:49:05,VALID,917.105,VALID,0,VALID,94.6828,VALID,0,VALID,21.1429,VALID,121,VALID,0,
2012-05-29, 00:50:05,VALID,917.112,VALID,0,VALID,94.6905,VALID,0,VALID,21.125,VALID,121,VALID,0,
2012-05-29, 00:51:05,VALID,917.113,VALID,0,VALID,94.8124,VALID,0,VALID,21.0665,VALID,121,VALID,0,
2012-05-29, 00:52:05,VALID,917.113,VALID,0,VALID,95.0106,VALID,0,VALID,21.0454,VALID,121,VALID,0,
2012-05-29, 00:53:05,VALID,917.103,VALID,0,VALID,95.1402,VALID,0,VALID,21.0275,VALID,120,VALID,0,
2012-05-29, 00:54:05,VALID,917.066,VALID,0,VALID,95.2698,VALID,0,VALID,21.0259,VALID,120,VALID,0,
2012-05-29, 00:55:05,VALID,917.062,VALID,0,VALID,95.3537,VALID,0,VALID,21.0064,VALID,121,VALID,0,
2012-05-29, 00:56:05,VALID,917.026,VALID,0,VALID,95.4375,VALID,0,VALID,20.9869,VALID,121,VALID,0,
2012-05-29, 00:57:05,VALID,917.008,VALID,0,VALID,95.5214,VALID,0,VALID,20.9674,VALID,121,VALID,0,
2012-05-29, 00:58:05,VALID,917.011,VALID,0,VALID,95.6129,VALID,0,VALID,20.9869,VALID,121,VALID,0,
2012-05-29, 00:59:05,VALID,917.017,VALID,0,VALID,95.6815,VALID,0,VALID,20.9885,VALID,120,VALID,0,
2012-05-29, 01:00:05,VALID,917.034,VALID,0,VALID,95.7577,VALID,0,VALID,20.9869,VALID,121,VALID,0,
2012-05-29, 01:01:05,VALID,916.987,VALID,0,VALID,95.8492,VALID,0,VALID,21.008,VALID,121,VALID,0,
2012-05-29, 01:02:05,VALID,916.981,VALID,0,VALID,95.8721,VALID,0,VALID,21.008,VALID,121,VALID,0,
2012-05-29, 01:03:05,VALID,916.974,VALID,0,VALID,95.7958,VALID,0,VALID,20.9284,VALID,121,VALID,0,
2012-05-29, 01:04:05,VALID,916.957,VALID,0,VALID,95.7958,VALID,0,VALID,20.9105,VALID,121,VALID,0,
2012-05-29, 01:05:05,VALID,916.947,VALID,0,VALID,95.7882,VALID,0,VALID,20.8504,VALID,121,VALID,0,
2012-05-29, 01:06:05,VALID,916.934,VALID,0,VALID,95.7577,VALID,0,VALID,20.7918,VALID,121,VALID,0,
2012-05-29, 01:07:05,VALID,916.937,VALID,0,VALID,95.651,VALID,0,VALID,20.7349,VALID,121,VALID,0,
2012-05-29, 01:08:05,VALID,916.915,VALID,0,VALID,95.651,VALID,0,VALID,20.6553,VALID,120,VALID,0,
2012-05-29, 01:09:05,VALID,916.937,VALID,0,VALID,95.7958,VALID,0,VALID,20.6358,VALID,121,VALID,0,
2012-05-29, 01:10:04,VALID,916.944,VALID,0,VALID,95.8721,VALID,0,VALID,20.6764,VALID,120,VALID,0,
2012-05-29, 01:11:04,VALID,916.926,VALID,0,VALID,95.9636,VALID,0,VALID,20.6748,VALID,121,VALID,0,
2012-05-29, 01:12:04,VALID,916.926,VALID,0,VALID,96.0398,VALID,0,VALID,20.6959,VALID,120,VALID,0,
2012-05-29, 01:13:04,VALID,916.893,VALID,0,VALID,96.0322,VALID,0,VALID,20.7365,VALID,121,VALID,0,
2012-05-29, 01:14:04,VALID,916.913,VALID,0,VALID,96.0398,VALID,0,VALID,20.6943,VALID,121,VALID,0,
2012-05-29, 01:15:04,VALID,916.95,VALID,0,VALID,96.1465,VALID,0,VALID,20.7544,VALID,121,VALID,0,
2012-05-29, 01:16:04,VALID,916.938,VALID,0,VALID,96.2761,VALID,0,VALID,20.8129,VALID,121,VALID,0,
2012-05-29, 01:17:04,VALID,916.963,VALID,0,VALID,96.3066,VALID,0,VALID,20.8504,VALID,121,VALID,0,
2012-05-29, 01:18:04,VALID,916.981,VALID,0,VALID,96.2609,VALID,0,VALID,20.8714,VALID,121,VALID,0,
2012-05-29, 01:19:04,VALID,916.988,VALID,0,VALID,96.2533,VALID,0,VALID,20.9105,VALID,121,VALID,0,
2012-05-29, 01:20:04,VALID,917,VALID,0,VALID,96.3066,VALID,0,VALID,20.9089,VALID,121,VALID,0,
2012-05-29, 01:21:04,VALID,916.982,VALID,0,VALID,96.2761,VALID,0,VALID,20.9495,VALID,121,VALID,0,
2012-05-29, 01:22:04,VALID,916.987,VALID,0,VALID,96.2685,VALID,0,VALID,20.969,VALID,121,VALID,0,
2012-05-29, 01:23:04,VALID,917.015,VALID,0,VALID,95.9864,VALID,0,VALID,20.93,VALID,121,VALID,0,
2012-05-29, 01:24:04,VALID,916.999,VALID,0,VALID,95.8416,VALID,0,VALID,20.8519,VALID,121,VALID,0,
2012-05-29, 01:25:04,VALID,916.956,VALID,0,VALID,95.773,VALID,0,VALID,20.7934,VALID,121,VALID,0,
2012-05-29, 01:26:04,VALID,916.925,VALID,0,VALID,95.7425,VALID,0,VALID,20.7755,VALID,121,VALID,0,
2012-05-29, 01:27:04,VALID,916.93,VALID,0,VALID,95.8416,VALID,0,VALID,20.7365,VALID,121,VALID,0,
2012-05-29, 01:28:04,VALID,916.9,VALID,0,VALID,95.8263,VALID,0,VALID,20.7365,VALID,121,VALID,0,
2012-05-29, 01:29:04,VALID,916.937,VALID,0,VALID,95.6205,VALID,0,VALID,20.6179,VALID,121,VALID,0,
2012-05-29, 01:30:04,VALID,916.89,VALID,0,VALID,95.6357,VALID,0,VALID,20.5594,VALID,121,VALID,0,
2012-05-29, 01:31:04,VALID,916.849,VALID,0,VALID,95.6967,VALID,0,VALID,20.5009,VALID,26,VALID,0,
2012-05-29, 01:32:04,VALID,916.88,VALID,0,VALID,95.7501,VALID,0,VALID,20.4618,VALID,26,VALID,0,
2012-05-29, 01:33:04,VALID,916.868,VALID,0,VALID,95.9407,VALID,0,VALID,20.4618,VALID,26,VALID,0,
2012-05-29, 01:34:04,VALID,916.856,VALID,0,VALID,96.0322,VALID,0,VALID,20.4618,VALID,26,VALID,0,
2012-05-29, 01:35:04,VALID,916.853,VALID,0,VALID,96.2304,VALID,0,VALID,20.4813,VALID,26,VALID,0,
2012-05-29, 01:36:04,VALID,916.829,VALID,0,VALID,96.3829,VALID,0,VALID,20.5399,VALID,26,VALID,0,
2012-05-29, 01:37:04,VALID,916.895,VALID,0,VALID,96.4667,VALID,0,VALID,20.5773,VALID,26,VALID,0,
2012-05-29, 01:38:04,VALID,916.848,VALID,0,VALID,96.4438,VALID,0,VALID,20.6163,VALID,26,VALID,0,
2012-05-29, 01:39:04,VALID,916.906,VALID,0,VALID,96.5277,VALID,0,VALID,20.6553,VALID,26,VALID,0,
2012-05-29, 01:40:04,VALID,916.86,VALID,0,VALID,96.4515,VALID,0,VALID,20.6959,VALID,26,VALID,0,
2012-05-29, 01:41:04,VALID,916.884,VALID,0,VALID,96.3981,VALID,0,VALID,20.6569,VALID,26,VALID,0,
2012-05-29, 01:42:04,VALID,916.848,VALID,0,VALID,96.3981,VALID,0,VALID,20.6358,VALID,26,VALID,0,
2012-05-29, 01:43:04,VALID,916.855,VALID,0,VALID,96.4515,VALID,0,VALID,20.6374,VALID,26,VALID,0,
2012-05-29, 01:44:04,VALID,916.858,VALID,0,VALID,96.4515,VALID,0,VALID,20.6374,VALID,26,VALID,0,
2012-05-29, 01:45:04,VALID,916.896,VALID,0,VALID,96.5124,VALID,0,VALID,20.6179,VALID,26,VALID,0,
2012-05-29, 01:46:04,VALID,916.846,VALID,0,VALID,96.5506,VALID,0,VALID,20.6179,VALID,26,VALID,0,
2012-05-29, 01:47:04,VALID,916.862,VALID,0,VALID,96.6115,VALID,0,VALID,20.6374,VALID,26,VALID,0,
2012-05-29, 01:48:04,VALID,916.831,VALID,0,VALID,96.5887,VALID,0,VALID,20.6179,VALID,26,VALID,0,
2012-05-29, 01:49:04,VALID,916.796,VALID,0,VALID,96.6344,VALID,0,VALID,20.6179,VALID,26,VALID,0,
2012-05-29, 01:50:04,VALID,916.773,VALID,0,VALID,96.5811,VALID,0,VALID,20.5789,VALID,26,VALID,0,
2012-05-29, 01:51:04,VALID,916.762,VALID,0,VALID,96.6115,VALID,0,VALID,20.5594,VALID,26,VALID,0,
2012-05-29, 01:52:04,VALID,916.756,VALID,0,VALID,96.6878,VALID,0,VALID,20.5399,VALID,26,VALID,0,
2012-05-29, 01:53:04,VALID,916.762,VALID,0,VALID,96.6649,VALID,0,VALID,20.5204,VALID,26,VALID,0,
2012-05-29, 01:54:04,VALID,916.796,VALID,0,VALID,96.6878,VALID,0,VALID,20.5009,VALID,26,VALID,0,
2012-05-29, 01:55:04,VALID,916.773,VALID,0,VALID,96.7335,VALID,0,VALID,20.5009,VALID,47,VALID,0,
2012-05-29, 01:56:04,VALID,916.756,VALID,0,VALID,96.7183,VALID,0,VALID,20.4618,VALID,97,VALID,0,
2012-05-29, 01:57:04,VALID,916.718,VALID,0,VALID,96.7564,VALID,0,VALID,20.4813,VALID,97,VALID,0,
2012-05-29, 01:58:04,VALID,916.681,VALID,0,VALID,96.7945,VALID,0,VALID,20.4813,VALID,97,VALID,0,
2012-05-29, 01:59:04,VALID,916.67,VALID,0,VALID,96.825,VALID,0,VALID,20.5009,VALID,97,VALID,0,
2012-05-29, 02:00:04,VALID,916.645,VALID,0,VALID,96.825,VALID,0,VALID,20.5024,VALID,97,VALID,0,
2012-05-29, 02:01:04,VALID,916.605,VALID,0,VALID,96.8403,VALID,0,VALID,20.4813,VALID,97,VALID,0,
2012-05-29, 02:02:04,VALID,916.61,VALID,0,VALID,96.8631,VALID,0,VALID,20.4813,VALID,97,VALID,0,
2012-05-29, 02:03:04,VALID,916.574,VALID,0,VALID,96.8555,VALID,0,VALID,20.4813,VALID,97,VALID,0,
2012-05-29, 02:04:04,VALID,916.543,VALID,0,VALID,96.8784,VALID,0,VALID,20.4798,VALID,97,VALID,0,
2012-05-29, 02:05:04,VALID,916.531,VALID,0,VALID,96.9012,VALID,0,VALID,20.4813,VALID,97,VALID,0,
2012-05-29, 02:06:04,VALID,916.592,VALID,0,VALID,96.9165,VALID,0,VALID,20.4798,VALID,97,VALID,0,
2012-05-29, 02:07:04,VALID,916.605,VALID,0,VALID,96.9012,VALID,0,VALID,20.4408,VALID,157,VALID,0,
2012-05-29, 02:08:04,VALID,916.649,VALID,0,VALID,96.9089,VALID,0,VALID,20.4813,VALID,157,VALID,0,
2012-05-29, 02:09:04,VALID,916.644,VALID,0,VALID,96.9317,VALID,0,VALID,20.5009,VALID,157,VALID,0,
2012-05-29, 02:10:04,VALID,916.657,VALID,0,VALID,96.9317,VALID,0,VALID,20.5204,VALID,157,VALID,0,
2012-05-29, 02:11:04,VALID,916.681,VALID,0,VALID,96.9622,VALID,0,VALID,20.5383,VALID,157,VALID,0,
2012-05-29, 02:12:04,VALID,916.669,VALID,0,VALID,96.9851,VALID,0,VALID,20.5968,VALID,157,VALID,0,
2012-05-29, 02:13:04,VALID,916.682,VALID,0,VALID,96.9851,VALID,0,VALID,20.5968,VALID,157,VALID,0,
2012-05-29, 02:14:04,VALID,916.664,VALID,0,VALID,96.9851,VALID,0,VALID,20.6374,VALID,157,VALID,0,
2012-05-29, 02:15:04,VALID,916.68,VALID,0,VALID,97.008,VALID,0,VALID,20.6569,VALID,157,VALID,0,
2012-05-29, 02:16:04,VALID,916.664,VALID,0,VALID,97.0232,VALID,0,VALID,20.6764,VALID,157,VALID,0,
2012-05-29, 02:17:04,VALID,916.648,VALID,0,VALID,97.0232,VALID,0,VALID,20.6764,VALID,157,VALID,0,
2012-05-29, 02:18:04,VALID,916.634,VALID,0,VALID,97.0232,VALID,0,VALID,20.6943,VALID,157,VALID,0,
2012-05-29, 02:19:04,VALID,916.639,VALID,0,VALID,97.0385,VALID,0,VALID,20.6959,VALID,157,VALID,0,
2012-05-29, 02:20:04,VALID,916.639,VALID,0,VALID,97.0232,VALID,0,VALID,20.6943,VALID,157,VALID,0,
2012-05-29, 02:21:04,VALID,916.602,VALID,0,VALID,97.0232,VALID,0,VALID,20.6943,VALID,157,VALID,0,
2012-05-29, 02:22:04,VALID,916.628,VALID,0,VALID,97.0461,VALID,0,VALID,20.6943,VALID,157,VALID,0,
2012-05-29, 02:23:04,VALID,916.648,VALID,0,VALID,97.0385,VALID,0,VALID,20.7528,VALID,157,VALID,0,
2012-05-29, 02:24:04,VALID,916.649,VALID,0,VALID,97.0385,VALID,0,VALID,20.7333,VALID,157,VALID,0,
2012-05-29, 02:25:04,VALID,916.643,VALID,0,VALID,97.069,VALID,0,VALID,20.7333,VALID,157,VALID,0,
2012-05-29, 02:26:04,VALID,916.624,VALID,0,VALID,97.0766,VALID,0,VALID,20.7739,VALID,157,VALID,0,
2012-05-29, 02:27:04,VALID,916.575,VALID,0,VALID,97.1071,VALID,0,VALID,20.7739,VALID,157,VALID,0,
2012-05-29, 02:28:04,VALID,916.552,VALID,0,VALID,97.0994,VALID,0,VALID,20.7544,VALID,157,VALID,0,
2012-05-29, 02:29:04,VALID,916.553,VALID,0,VALID,97.0842,VALID,0,VALID,20.7544,VALID,157,VALID,0,
2012-05-29, 02:30:04,VALID,916.555,VALID,0,VALID,97.0842,VALID,0,VALID,20.7528,VALID,157,VALID,0,
2012-05-29, 02:31:04,VALID,916.546,VALID,0,VALID,97.1223,VALID,0,VALID,20.7739,VALID,157,VALID,0,
2012-05-29, 02:32:04,VALID,916.57,VALID,0,VALID,97.1223,VALID,0,VALID,20.7934,VALID,157,VALID,0,
2012-05-29, 02:33:04,VALID,916.529,VALID,0,VALID,97.1147,VALID,0,VALID,20.7934,VALID,149,VALID,0,
2012-05-29, 02:34:04,VALID,916.531,VALID,0,VALID,97.1223,VALID,0,VALID,20.7528,VALID,145,VALID,0,
2012-05-29, 02:35:04,VALID,916.536,VALID,0,VALID,97.1376,VALID,0,VALID,20.7544,VALID,130,VALID,0,
2012-05-29, 02:36:04,VALID,916.501,VALID,0,VALID,97.1299,VALID,0,VALID,20.7154,VALID,130,VALID,0,
2012-05-29, 02:37:04,VALID,916.497,VALID,0,VALID,97.1299,VALID,0,VALID,20.6943,VALID,114,VALID,0,
2012-05-29, 02:38:04,VALID,916.508,VALID,0,VALID,97.1223,VALID,0,VALID,20.6943,VALID,109,VALID,0,
2012-05-29, 02:39:04,VALID,916.491,VALID,0,VALID,97.1299,VALID,0,VALID,20.6943,VALID,109,VALID,0,
2012-05-29, 02:40:04,VALID,916.474,VALID,0,VALID,97.1452,VALID,0,VALID,20.7154,VALID,116,VALID,0,
2012-05-29, 02:41:04,VALID,916.437,VALID,0,VALID,97.1528,VALID,0,VALID,20.6943,VALID,118,VALID,0,
2012-05-29, 02:42:04,VALID,916.416,VALID,0,VALID,97.1376,VALID,0,VALID,20.6748,VALID,109,VALID,0,
2012-05-29, 02:43:04,VALID,916.379,VALID,0,VALID,97.1681,VALID,0,VALID,20.6748,VALID,109,VALID,0,
2012-05-29, 02:44:04,VALID,916.371,VALID,0,VALID,97.1528,VALID,0,VALID,20.6959,VALID,110,VALID,0,
2012-05-29, 02:45:04,VALID,916.34,VALID,0,VALID,97.1604,VALID,0,VALID,20.6748,VALID,110,VALID,0,
2012-05-29, 02:46:04,VALID,916.342,VALID,0,VALID,97.1757,VALID,0,VALID,20.6553,VALID,110,VALID,0,
2012-05-29, 02:47:04,VALID,916.331,VALID,0,VALID,97.1681,VALID,0,VALID,20.6553,VALID,110,VALID,0,
2012-05-29, 02:48:04,VALID,916.346,VALID,0,VALID,97.1757,VALID,0,VALID,20.6748,VALID,110,VALID,0,
2012-05-29, 02:49:04,VALID,916.315,VALID,0,VALID,97.1986,VALID,0,VALID,20.7154,VALID,110,VALID,0,
2012-05-29, 02:50:04,VALID,916.297,VALID,0,VALID,97.1986,VALID,0,VALID,20.6943,VALID,110,VALID,0,
2012-05-29, 02:51:04,VALID,916.282,VALID,0,VALID,97.1757,VALID,0,VALID,20.7154,VALID,116,VALID,0,
2012-05-29, 02:52:04,VALID,916.281,VALID,0,VALID,97.1909,VALID,0,VALID,20.6943,VALID,117,VALID,0,
2012-05-29, 02:53:04,VALID,916.283,VALID,0,VALID,97.2138,VALID,0,VALID,20.6959,VALID,117,VALID,0,
2012-05-29, 02:54:04,VALID,916.278,VALID,0,VALID,97.1909,VALID,0,VALID,20.6748,VALID,117,VALID,0,
2012-05-29, 02:55:04,VALID,916.267,VALID,0,VALID,97.2062,VALID,0,VALID,20.6748,VALID,117,VALID,0,
2012-05-29, 02:56:04,VALID,916.276,VALID,0,VALID,97.2138,VALID,0,VALID,20.6959,VALID,132,VALID,0,
2012-05-29, 02:57:04,VALID,916.295,VALID,0,VALID,97.2138,VALID,0,VALID,20.6959,VALID,132,VALID,0,
2012-05-29, 02:58:04,VALID,916.289,VALID,0,VALID,97.2214,VALID,0,VALID,20.6943,VALID,132,VALID,0,
2012-05-29, 02:59:04,VALID,916.268,VALID,0,VALID,97.229,VALID,0,VALID,20.6358,VALID,118,VALID,0,
2012-05-29, 03:00:04,VALID,916.267,VALID,0,VALID,97.2138,VALID,0,VALID,20.6585,VALID,118,VALID,0,
2012-05-29, 03:01:04,VALID,916.281,VALID,0,VALID,97.2214,VALID,0,VALID,20.6179,VALID,117,VALID,0,
2012-05-29, 03:02:04,VALID,916.301,VALID,0,VALID,97.2214,VALID,0,VALID,20.6179,VALID,109,VALID,0,
2012-05-29, 03:03:04,VALID,916.303,VALID,0,VALID,97.2214,VALID,0,VALID,20.5968,VALID,113,VALID,0,
2012-05-29, 03:04:04,VALID,916.327,VALID,0,VALID,97.2214,VALID,0,VALID,20.6374,VALID,113,VALID,0,
2012-05-29, 03:05:04,VALID,916.361,VALID,0,VALID,97.2138,VALID,0,VALID,20.6358,VALID,113,VALID,0,
2012-05-29, 03:06:04,VALID,916.329,VALID,0,VALID,97.2519,VALID,0,VALID,20.6569,VALID,113,VALID,0,
2012-05-29, 03:07:04,VALID,916.335,VALID,0,VALID,97.2367,VALID,0,VALID,20.6569,VALID,129,VALID,0,
2012-05-29, 03:08:04,VALID,916.308,VALID,0,VALID,97.2519,VALID,0,VALID,20.6358,VALID,130,VALID,0,
2012-05-29, 03:09:04,VALID,916.328,VALID,0,VALID,97.2595,VALID,0,VALID,20.6163,VALID,130,VALID,0,
2012-05-29, 03:10:04,VALID,916.325,VALID,0,VALID,97.2672,VALID,0,VALID,20.5968,VALID,124,VALID,0,
2012-05-29, 03:11:04,VALID,916.3,VALID,0,VALID,97.2672,VALID,0,VALID,20.6374,VALID,136,VALID,0,
2012-05-29, 03:12:04,VALID,916.31,VALID,0,VALID,97.2595,VALID,0,VALID,20.6569,VALID,136,VALID,0,
2012-05-29, 03:13:04,VALID,916.264,VALID,0,VALID,97.2519,VALID,0,VALID,20.6569,VALID,136,VALID,0,
2012-05-29, 03:14:04,VALID,916.264,VALID,0,VALID,97.2519,VALID,0,VALID,20.6358,VALID,137,VALID,0,
2012-05-29, 03:15:04,VALID,916.216,VALID,0,VALID,97.2672,VALID,0,VALID,20.6764,VALID,136,VALID,0,
2012-05-29, 03:16:04,VALID,916.183,VALID,0,VALID,97.2519,VALID,0,VALID,20.6959,VALID,136,VALID,0,
2012-05-29, 03:17:04,VALID,916.192,VALID,0,VALID,97.2748,VALID,0,VALID,20.6569,VALID,136,VALID,0,
2012-05-29, 03:18:04,VALID,916.099,VALID,0,VALID,97.2824,VALID,0,VALID,20.6163,VALID,136,VALID,0,
2012-05-29, 03:19:04,VALID,916.119,VALID,0,VALID,97.2748,VALID,0,VALID,20.6569,VALID,136,VALID,0,
2012-05-29, 03:20:04,VALID,916.073,VALID,0,VALID,97.2672,VALID,0,VALID,20.6179,VALID,136,VALID,0,
2012-05-29, 03:21:04,VALID,916.054,VALID,0,VALID,97.2824,VALID,0,VALID,20.6374,VALID,136,VALID,0,
2012-05-29, 03:22:04,VALID,916.033,VALID,0,VALID,97.29,VALID,0,VALID,20.6374,VALID,136,VALID,0,
2012-05-29, 03:23:04,VALID,916.042,VALID,0,VALID,97.2672,VALID,0,VALID,20.6585,VALID,136,VALID,0,
2012-05-29, 03:24:04,VALID,916.008,VALID,0,VALID,97.2595,VALID,0,VALID,20.5968,VALID,136,VALID,0,
2012-05-29, 03:25:04,VALID,915.982,VALID,0,VALID,97.2748,VALID,0,VALID,20.5984,VALID,135,VALID,0,
2012-05-29, 03:26:04,VALID,915.987,VALID,0,VALID,97.2748,VALID,0,VALID,20.5984,VALID,123,VALID,0,
2012-05-29, 03:27:04,VALID,915.986,VALID,0,VALID,97.2824,VALID,0,VALID,20.5984,VALID,123,VALID,0,
2012-05-29, 03:28:04,VALID,915.993,VALID,0,VALID,97.2748,VALID,0,VALID,20.6179,VALID,123,VALID,0,
2012-05-29, 03:29:04,VALID,915.975,VALID,0,VALID,97.2748,VALID,0,VALID,20.639,VALID,123,VALID,0,
2012-05-29, 03:30:04,VALID,915.992,VALID,0,VALID,97.29,VALID,0,VALID,20.639,VALID,123,VALID,0,
2012-05-29, 03:31:04,VALID,916.004,VALID,0,VALID,97.2748,VALID,0,VALID,20.5968,VALID,123,VALID,0,
2012-05-29, 03:32:04,VALID,916.023,VALID,0,VALID,97.2824,VALID,0,VALID,20.6179,VALID,123,VALID,0,
2012-05-29, 03:33:04,VALID,915.99,VALID,0,VALID,97.29,VALID,0,VALID,20.6374,VALID,123,VALID,0,
2012-05-29, 03:34:04,VALID,915.97,VALID,0,VALID,97.29,VALID,0,VALID,20.6569,VALID,123,VALID,0,
2012-05-29, 03:35:04,VALID,915.994,VALID,0,VALID,97.2748,VALID,0,VALID,20.6374,VALID,123,VALID,0,
2012-05-29, 03:36:04,VALID,915.97,VALID,0,VALID,97.2824,VALID,0,VALID,20.6569,VALID,123,VALID,0,
2012-05-29, 03:37:04,VALID,915.97,VALID,0,VALID,97.29,VALID,0,VALID,20.6374,VALID,123,VALID,0,
2012-05-29, 03:38:04,VALID,915.953,VALID,0,VALID,97.2672,VALID,0,VALID,20.5968,VALID,123,VALID,0,
2012-05-29, 03:39:04,VALID,915.938,VALID,0,VALID,97.2672,VALID,0,VALID,20.5789,VALID,123,VALID,0,
2012-05-29, 03:40:04,VALID,915.888,VALID,0,VALID,97.2519,VALID,0,VALID,20.5399,VALID,123,VALID,0,
2012-05-29, 03:41:04,VALID,915.853,VALID,0,VALID,97.2519,VALID,0,VALID,20.5399,VALID,123,VALID,0,
2012-05-29, 03:42:04,VALID,915.845,VALID,0,VALID,97.2367,VALID,0,VALID,20.5399,VALID,123,VALID,0,
2012-05-29, 03:43:04,VALID,915.806,VALID,0,VALID,97.2519,VALID,0,VALID,20.5399,VALID,123,VALID,0,
2012-05-29, 03:44:04,VALID,915.8,VALID,0,VALID,97.2672,VALID,0,VALID,20.5594,VALID,124,VALID,0,
2012-05-29, 03:45:04,VALID,915.762,VALID,0,VALID,97.2443,VALID,0,VALID,20.5383,VALID,123,VALID,0,
2012-05-29, 03:46:04,VALID,915.739,VALID,0,VALID,97.2595,VALID,0,VALID,20.5399,VALID,123,VALID,0,
2012-05-29, 03:47:04,VALID,915.734,VALID,0,VALID,97.2672,VALID,0,VALID,20.5204,VALID,123,VALID,0,
2012-05-29, 03:48:04,VALID,915.718,VALID,0,VALID,97.2595,VALID,0,VALID,20.5009,VALID,123,VALID,0,
2012-05-29, 03:49:04,VALID,915.698,VALID,0,VALID,97.2367,VALID,0,VALID,20.4408,VALID,123,VALID,0,
2012-05-29, 03:50:04,VALID,915.695,VALID,0,VALID,97.229,VALID,0,VALID,20.3643,VALID,123,VALID,0,
2012-05-29, 03:51:04,VALID,915.739,VALID,0,VALID,97.2062,VALID,0,VALID,20.3253,VALID,123,VALID,0,
2012-05-29, 03:52:04,VALID,915.722,VALID,0,VALID,97.1909,VALID,0,VALID,20.2458,VALID,124,VALID,0,
2012-05-29, 03:53:04,VALID,915.704,VALID,0,VALID,97.1986,VALID,0,VALID,20.2278,VALID,123,VALID,0,
2012-05-29, 03:54:04,VALID,915.715,VALID,0,VALID,97.2062,VALID,0,VALID,20.2278,VALID,123,VALID,0,
2012-05-29, 03:55:04,VALID,915.705,VALID,0,VALID,97.2138,VALID,0,VALID,20.2473,VALID,123,VALID,0,
2012-05-29, 03:56:04,VALID,915.711,VALID,0,VALID,97.2367,VALID,0,VALID,20.2473,VALID,123,VALID,0,
2012-05-29, 03:57:04,VALID,915.722,VALID,0,VALID,97.2519,VALID,0,VALID,20.2278,VALID,123,VALID,0,
2012-05-29, 03:58:04,VALID,915.71,VALID,0,VALID,97.2519,VALID,0,VALID,20.2068,VALID,123,VALID,0,
2012-05-29, 03:59:04,VALID,915.734,VALID,0,VALID,97.29,VALID,0,VALID,20.2473,VALID,123,VALID,0,
2012-05-29, 04:00:04,VALID,915.735,VALID,0,VALID,97.2824,VALID,0,VALID,20.2473,VALID,123,VALID,0,